Date,TemperatureHighF,TemperatureAvgF,TemperatureLowF,DewpointHighF,DewpointAvgF,DewpointLowF,HumidityHigh,HumidityAvg,HumidityLow,PressureMaxIn,PressureMinIn,WindSpeedMaxMPH,WindSpeedAvgMPH,GustSpeedMaxMPH,PrecipitationSumIn
2013-1-1,33,23,9,26,15,1,93,72,52,29.75,29.52,25,4,25,0.01
2013-1-2,15,8,1,2,-2,-6,76,63,51,29.93,29.73,27,7,27,0.00
2013-1-3,18,8,-4,100,17,-6,82,69,54,30.02,29.90,14,2,17,0.00
2013-1-4,32,17,-4,100,36,-4,89,82,73,29.90,29.65,13,0,15,0.00
2013-1-5,32,24,3,27,14,-1,85,68,41,30.27,29.65,35,4,38,0.00
2013-1-6,29,15,0,25,12,-3,94,89,84,30.24,29.88,6,0,6,0.00
2013-1-7,20,11,-6,100,26,-4,92,77,49,30.40,29.97,15,2,20,0.00
2013-1-8,43,28,-5,100,27,-3,100,81,58,30.38,30.13,14,1,17,0.13
2013-1-9,39,28,10,38,25,8,97,88,65,30.39,29.78,11,0,13,0.07
2013-1-10,42,37,28,34,28,20,88,69,54,30.45,29.78,31,8,33,0.00
2013-1-11,37,29,20,23,19,15,83,69,46,30.50,30.27,13,2,13,0.00
2013-1-12,40,34,30,32,29,21,92,80,69,30.27,30.08,9,0,9,0.00
2013-1-13,45,40,34,44,39,32,99,97,92,30.12,29.91,8,0,11,0.01
2013-1-14,53,45,36,50,41,26,99,87,60,30.15,29.80,16,2,19,0.01
2013-1-15,37,31,23,26,22,20,86,70,51,30.28,30.14,21,2,21,0.00
2013-1-16,35,29,23,34,27,20,98,92,80,30.27,29.74,15,0,15,0.08
2013-1-17,40,30,11,37,23,-2,98,75,43,30.11,29.68,20,4,24,0.32
2013-1-18,13,7,0,100,-2,-9,82,59,38,30.36,30.09,21,4,27,0.00
2013-1-19,33,24,8,30,20,0,96,88,60,30.35,29.92,5,0,6,0.01
2013-1-20,49,37,23,42,29,4,99,76,43,29.92,29.39,23,3,30,0.02
2013-1-21,23,17,12,11,2,-2,84,53,36,30.00,29.74,25,4,32,0.00
2013-1-22,15,9,-1,100,1,-7,86,61,45,29.92,29.76,18,4,20,0.00
2013-1-23,6,2,-4,-7,-42,-100,58,48,37,30.00,29.90,25,5,25,0.00
2013-1-24,9,2,-4,-8,-43,-100,60,51,38,29.98,29.80,27,6,27,0.00
2013-1-25,19,9,1,2,-2,-10,75,59,46,30.09,29.97,22,5,29,0.00
2013-1-26,19,11,5,1,-2,-3,69,56,41,30.05,29.90,20,4,20,0.00
2013-1-27,23,14,7,7,2,-3,69,58,47,30.33,30.01,27,6,31,0.00
2013-1-28,26,17,6,12,3,-2,73,56,29,30.36,30.06,12,2,13,0.00
2013-1-29,37,24,9,21,14,5,86,68,46,30.22,30.05,10,1,11,0.00
2013-1-30,52,42,26,52,41,20,99,95,78,30.17,29.44,24,4,24,0.28
2013-1-31,53,46,33,53,42,19,99,87,55,29.45,28.81,39,6,39,0.46
2013-2-1,33,24,12,19,8,1,62,50,39,29.96,29.33,23,5,25,0.00
2013-2-2,26,16,8,18,5,-1,94,61,38,30.17,29.96,14,2,18,0.00
2013-2-3,27,22,20,21,18,16,92,85,76,30.06,29.61,17,3,20,0.02
2013-2-4,27,21,14,17,9,-7,85,61,36,29.77,29.50,28,6,32,0.00
2013-2-5,22,12,7,2,-2,-6,79,52,31,30.02,29.77,16,2,17,0.00
2013-2-6,34,20,6,30,13,0,92,73,46,30.19,29.88,17,2,18,0.04
2013-2-7,16,7,-5,100,6,-100,81,54,31,30.60,30.19,19,4,21,0.00
2013-2-8,19,10,-4,100,12,-47,92,76,59,30.61,29.94,21,3,25,0.00
2013-2-9,17,14,10,15,11,7,91,89,83,29.95,29.62,44,12,54,0.00
2013-2-10,32,20,7,12,8,2,84,61,39,30.32,29.95,25,6,33,0.00
2013-2-11,41,21,-2,100,33,-3,100,86,67,30.32,29.51,18,1,18,0.40
2013-2-12,43,38,34,40,34,30,98,83,67,29.68,29.43,18,3,19,0.04
2013-2-13,44,37,31,30,28,24,87,70,48,29.75,29.66,18,2,18,0.00
2013-2-14,40,31,20,26,21,18,92,68,43,29.98,29.68,14,3,18,0.00
2013-2-15,44,33,18,38,29,16,98,87,69,30.00,29.92,18,2,21,0.00
2013-2-16,42,34,28,38,32,27,100,92,78,29.92,29.71,19,3,22,0.00
2013-2-17,28,23,18,28,21,15,100,91,85,29.71,28.89,34,12,42,0.00
2013-2-18,29,22,16,15,8,3,85,55,44,29.82,29.16,32,11,43,0.00
2013-2-19,45,31,21,37,16,4,95,56,31,30.04,29.73,15,3,21,0.00
2013-2-20,44,38,30,43,32,19,98,80,63,29.74,29.35,20,4,29,0.00
2013-2-21,34,30,25,30,22,16,93,72,61,30.04,29.52,22,6,30,0.00
2013-2-22,39,31,21,27,22,18,89,69,49,30.36,30.04,22,4,22,0.00
2013-2-23,33,27,20,26,23,18,93,83,72,30.36,30.06,12,1,14,0.00
2013-2-24,33,30,28,28,25,22,93,83,75,30.06,29.78,13,2,16,0.00
2013-2-25,39,28,18,22,16,10,84,65,32,30.21,29.84,18,3,19,0.02
2013-2-26,44,28,13,25,18,9,92,71,38,30.34,30.21,12,1,12,0.00
2013-2-27,40,31,20,32,25,18,95,79,57,30.29,29.80,23,2,26,0.00
2013-2-28,38,35,32,37,34,31,98,97,95,29.80,29.50,21,3,21,0.18
2013-3-1,34,32,30,33,31,29,97,95,92,29.58,29.48,16,3,20,0.02
2013-3-2,39,34,30,36,32,29,100,93,86,29.56,29.51,18,4,19,0.02
2013-3-3,44,37,34,37,34,33,97,89,71,29.54,29.42,12,2,12,0.00
2013-3-4,36,34,33,34,32,31,97,95,90,29.61,29.37,15,3,18,0.00
2013-3-5,42,36,33,38,34,32,97,92,80,30.12,29.61,19,4,19,0.00
2013-3-6,37,34,32,33,28,25,95,80,68,30.28,30.12,21,4,23,0.00
2013-3-7,39,34,32,27,26,24,78,72,61,30.24,30.07,26,5,34,0.00
2013-3-8,47,36,30,26,25,22,80,66,37,30.18,30.03,32,7,32,0.01
2013-3-9,42,33,28,27,25,22,87,73,55,30.38,30.17,21,4,23,0.00
2013-3-10,41,32,28,29,26,24,92,79,58,30.42,30.29,7,1,11,0.00
2013-3-11,43,38,31,38,35,29,95,87,77,30.31,30.17,17,2,18,0.00
2013-3-12,51,45,39,47,42,38,98,91,79,30.19,29.86,22,3,22,0.20
2013-3-13,49,45,36,49,44,30,98,95,80,29.86,29.56,28,4,30,1.73
2013-3-14,44,35,28,32,27,23,93,74,46,29.66,29.56,20,2,23,0.00
2013-3-15,35,27,20,23,14,9,89,61,36,29.69,29.55,23,5,29,0.00
2013-3-16,37,28,20,18,13,10,85,56,35,29.85,29.58,16,3,18,0.00
2013-3-17,32,23,15,12,5,-3,82,48,27,30.24,29.85,25,5,30,0.00
2013-3-18,33,21,7,13,2,-4,77,45,26,30.38,30.23,24,3,27,0.00
2013-3-19,28,25,21,25,18,7,95,78,50,30.31,29.63,21,3,21,0.00
2013-3-20,33,26,19,28,23,17,95,88,77,29.66,29.48,26,4,28,0.19
2013-3-21,40,29,16,28,23,14,96,78,50,29.75,29.56,11,1,13,0.07
2013-3-22,42,32,21,26,20,15,88,64,36,29.57,29.48,18,4,23,0.00
2013-3-23,41,33,25,28,22,17,78,65,49,29.53,29.36,24,5,26,0.00
2013-3-24,46,36,27,29,26,24,89,68,47,29.72,29.49,21,4,24,0.00
2013-3-25,45,36,24,33,28,22,95,74,49,29.74,29.55,16,2,18,0.00
2013-3-26,49,38,28,33,27,23,82,67,41,29.62,29.48,23,5,24,0.00
2013-3-27,40,36,33,39,34,29,96,91,80,29.80,29.61,20,4,20,0.26
2013-3-28,50,40,29,35,31,26,90,73,42,29.89,29.80,13,2,14,0.00
2013-3-29,54,44,29,40,33,26,93,68,45,29.93,29.86,15,2,17,0.00
2013-3-30,55,40,28,33,24,14,93,58,22,30.03,29.91,16,2,19,0.00
2013-3-31,53,39,25,32,22,14,94,56,25,30.09,29.90,12,1,18,0.00
2013-4-1,48,41,32,46,39,31,100,93,81,29.90,29.43,21,2,23,1.12
2013-4-2,38,32,27,32,16,10,90,54,33,29.74,29.56,22,4,23,0.00
2013-4-3,41,32,25,22,17,13,84,55,37,29.90,29.71,24,6,30,0.00
2013-4-4,51,38,30,34,17,7,89,46,19,30.10,29.90,21,5,30,0.00
2013-4-5,50,42,32,37,33,28,94,73,55,29.95,29.62,16,2,21,0.00
2013-4-6,40,33,23,28,13,3,69,46,22,30.31,29.69,31,7,33,0.00
2013-4-7,42,32,19,37,24,12,89,71,45,30.33,29.98,21,3,27,0.01
2013-4-8,59,47,32,42,37,29,92,72,46,30.12,29.85,20,4,23,0.00
2013-4-9,42,36,30,41,35,28,97,96,91,30.14,29.90,15,1,16,0.27
2013-4-10,55,45,37,46,41,36,98,89,62,29.97,29.85,11,1,16,0.02
2013-4-11,49,42,31,41,22,11,96,50,24,30.16,29.83,23,5,24,0.00
2013-4-12,42,34,27,32,24,14,97,70,43,30.25,29.93,12,1,12,0.04
2013-4-13,43,37,33,38,35,32,100,92,81,29.94,29.76,14,2,18,0.34
2013-4-14,46,38,32,43,37,30,98,95,85,30.12,29.88,12,1,13,0.44
2013-4-15,48,39,29,40,36,28,98,90,71,30.42,30.12,13,1,16,0.00
2013-4-16,49,40,29,45,38,28,99,91,73,30.42,29.90,21,3,24,0.18
2013-4-17,60,50,33,47,34,19,97,58,30,30.34,29.89,29,6,29,0.00
2013-4-18,49,39,25,37,28,21,89,68,38,30.46,30.15,15,2,16,0.00
2013-4-19,60,51,44,55,48,36,98,90,72,30.16,29.71,18,3,26,0.00
2013-4-20,57,51,43,54,47,31,100,88,60,30.08,29.59,18,3,20,0.33
2013-4-21,52,42,28,31,25,16,81,54,27,30.68,30.08,23,4,23,0.00
2013-4-22,48,37,24,34,26,20,93,66,34,30.81,30.68,14,1,15,0.00
2013-4-23,45,38,27,41,34,25,96,86,67,30.69,30.22,11,1,13,0.13
2013-4-24,53,46,42,53,45,41,99,97,96,30.22,29.76,12,2,13,0.88
2013-4-25,63,51,42,52,42,32,99,76,36,30.25,29.81,17,3,19,0.15
2013-4-26,57,44,32,39,34,29,93,69,42,30.41,30.25,14,2,15,0.00
2013-4-27,63,46,28,39,32,25,97,64,24,30.42,30.25,14,1,16,0.01
2013-4-28,61,46,29,44,34,28,96,68,34,30.34,30.23,13,1,14,0.00
2013-4-29,67,49,30,41,34,23,98,63,21,30.29,30.21,12,1,16,0.00
2013-4-30,69,51,32,43,34,23,100,60,19,30.36,30.25,14,1,16,0.00
2013-5-1,68,50,32,44,35,30,97,62,27,30.45,30.36,13,1,14,0.00
2013-5-2,64,49,35,45,37,31,90,67,30,30.53,30.41,14,1,15,0.00
2013-5-3,68,50,38,45,40,35,91,71,39,30.54,30.36,14,2,16,0.00
2013-5-4,58,44,31,42,36,30,97,73,45,30.40,30.30,16,2,16,0.00
2013-5-5,63,47,29,42,36,28,97,71,41,30.32,30.23,15,1,18,0.00
2013-5-6,63,47,29,48,40,28,97,79,53,30.27,30.17,20,2,21,0.00
2013-5-7,73,56,43,53,49,42,98,79,42,30.17,30.08,16,2,18,0.00
2013-5-8,72,57,46,60,53,45,98,87,66,30.27,30.16,15,2,16,0.00
2013-5-9,57,52,49,56,51,48,100,97,95,30.17,29.92,11,1,12,0.20
2013-5-10,66,56,48,61,54,48,99,92,78,29.97,29.89,13,1,14,0.02
2013-5-11,56,51,47,55,50,46,99,98,95,29.97,29.72,14,2,19,0.15
2013-5-12,58,54,48,57,54,46,99,98,93,29.72,29.52,19,1,30,0.34
2013-5-13,58,49,39,47,40,35,99,75,45,29.98,29.64,18,2,20,0.09
2013-5-14,56,47,38,41,37,31,95,69,41,29.98,29.88,11,1,13,0.00
2013-5-15,64,50,31,46,36,28,96,63,29,29.97,29.71,22,3,22,0.20
2013-5-16,72,57,47,59,51,46,98,84,49,29.73,29.52,17,2,22,0.22
2013-5-17,60,51,41,47,42,37,96,73,47,30.17,29.73,24,4,24,0.00
2013-5-18,60,46,35,42,38,34,97,76,42,30.35,30.16,15,2,19,0.00
2013-5-19,57,47,33,47,41,32,100,82,57,30.39,30.26,14,2,16,0.00
2013-5-20,52,50,48,51,49,47,99,97,95,30.27,29.94,21,2,21,0.66
2013-5-21,52,49,46,50,48,45,100,97,94,30.07,29.99,11,0,11,0.04
2013-5-22,53,50,48,52,49,47,100,98,94,30.05,29.94,13,2,20,0.51
2013-5-23,62,54,46,60,53,46,100,97,90,29.97,29.82,13,2,17,0.01
2013-5-24,60,57,51,59,56,50,99,98,96,29.84,29.69,23,3,26,2.38
2013-5-25,51,50,48,51,49,47,100,98,96,29.80,29.71,20,3,22,0.66
2013-5-26,51,48,45,48,46,43,100,94,83,29.87,29.64,15,2,17,0.15
2013-5-27,62,51,41,44,41,38,97,71,45,30.13,29.87,16,3,20,0.01
2013-5-28,72,55,34,50,41,33,98,65,32,30.23,30.13,13,1,17,0.00
2013-5-29,53,48,40,52,47,38,99,97,89,30.24,29.99,11,1,12,0.51
2013-5-30,83,66,50,67,59,50,100,82,48,29.99,29.92,13,1,17,0.01
2013-5-31,90,74,53,69,62,52,98,71,44,30.01,29.84,13,1,17,0.00
2013-6-1,92,76,60,69,64,56,97,70,44,29.90,29.79,15,1,15,0.00
2013-6-2,84,68,57,70,61,55,94,79,58,29.80,29.70,15,2,22,0.00
2013-6-3,67,61,57,65,59,56,97,94,83,29.81,29.69,8,1,12,0.04
2013-6-4,68,60,48,56,47,41,98,68,41,29.96,29.72,19,3,25,0.00
2013-6-5,72,58,42,48,43,36,96,60,29,30.12,29.96,19,2,20,0.00
2013-6-6,71,58,43,51,45,34,97,66,34,30.20,30.12,10,1,12,0.00
2013-6-7,63,56,49,54,50,41,97,82,45,30.17,30.00,12,1,12,0.18
2013-6-8,63,56,52,60,55,51,98,95,86,30.00,29.62,19,2,19,1.82
2013-6-9,67,58,48,58,53,47,98,85,69,30.10,29.93,11,1,13,0.00
2013-6-10,73,61,50,58,53,49,99,78,52,30.18,30.04,10,1,12,0.00
2013-6-11,55,54,52,54,53,51,100,96,90,30.04,29.54,14,2,18,1.04
2013-6-12,59,55,52,58,54,51,100,96,92,29.66,29.46,19,4,23,0.56
2013-6-13,72,60,52,57,53,50,97,81,52,29.78,29.66,12,2,14,0.02
2013-6-14,64,56,50,53,51,48,96,83,65,29.72,29.65,9,1,9,0.00
2013-6-15,77,62,43,51,46,42,99,61,31,29.83,29.68,20,3,21,0.00
2013-6-16,79,64,54,55,51,46,93,65,37,29.87,29.72,13,1,15,0.00
2013-6-17,80,64,55,62,58,53,97,81,48,29.81,29.69,19,1,19,0.02
2013-6-18,74,63,52,58,53,48,98,72,42,29.91,29.79,18,1,18,0.00
2013-6-19,76,63,48,54,48,40,92,62,29,30.09,29.89,20,2,20,0.00
2013-6-20,77,62,44,57,49,42,97,68,33,30.21,30.09,14,1,19,0.00
2013-6-21,82,66,50,61,54,48,98,69,36,30.20,30.12,12,1,14,0.00
2013-6-22,78,66,53,65,58,51,96,78,52,30.18,30.08,0,0,0,0.00
2013-6-23,75,63,53,67,60,52,98,89,70,30.12,29.93,12,1,12,0.00
2013-6-24,88,74,60,73,67,58,99,81,57,29.93,29.75,15,1,18,0.01
2013-6-25,92,77,63,71,67,61,97,74,47,29.80,29.66,13,0,16,0.03
2013-6-26,74,65,58,70,63,55,98,94,86,29.87,29.66,9,1,11,0.04
2013-6-27,60,57,55,56,55,53,98,93,87,29.91,29.85,8,1,10,0.03
2013-6-28,62,59,55,62,58,55,100,98,98,29.89,29.61,14,2,14,1.25
2013-6-29,67,62,60,67,62,59,100,99,95,29.72,29.59,12,1,15,0.05
2013-6-30,78,66,60,72,64,60,100,94,79,29.93,29.71,11,1,12,0.00
2013-7-1,80,68,59,73,65,58,99,92,75,30.10,29.92,8,0,8,0.02
2013-7-2,67,60,57,67,58,55,99,95,87,30.22,30.09,10,1,13,0.47
2013-7-3,83,67,57,72,63,56,99,88,68,30.18,30.07,7,0,8,0.00
2013-7-4,91,77,59,74,67,59,99,76,47,30.12,30.01,15,1,16,0.00
2013-7-5,92,81,67,73,70,66,98,73,46,30.04,29.94,18,2,18,0.00
2013-7-6,89,80,69,75,71,64,98,76,56,29.97,29.85,19,2,19,0.00
2013-7-7,93,82,69,74,67,63,86,63,42,29.89,29.82,14,2,15,0.00
2013-7-8,78,69,59,69,62,53,95,79,58,30.06,29.88,9,1,12,0.35
2013-7-9,68,62,57,65,61,56,98,95,90,30.13,30.06,6,0,8,0.01
2013-7-10,65,61,59,62,60,59,99,96,89,30.09,29.79,9,1,11,0.03
2013-7-11,82,70,61,74,67,61,100,93,75,29.93,29.74,13,1,14,0.06
2013-7-12,83,70,59,67,60,56,98,73,47,30.19,29.93,12,2,17,0.00
2013-7-13,86,70,54,66,59,53,98,72,40,30.29,30.19,12,1,13,0.00
2013-7-14,90,74,55,70,63,54,97,73,48,30.26,30.13,10,0,10,0.00
2013-7-15,96,79,61,71,66,60,98,69,34,30.14,29.99,11,1,13,0.00
2013-7-16,92,77,64,71,66,59,89,70,47,30.16,30.02,11,1,13,0.00
2013-7-17,79,70,61,67,62,57,95,78,58,30.19,29.86,14,2,17,0.21
2013-7-18,89,76,65,70,65,57,98,72,42,29.98,29.85,12,1,14,0.04
2013-7-19,86,73,64,76,69,62,98,88,67,29.96,29.58,15,1,18,0.27
2013-7-20,91,80,70,75,70,62,91,73,53,29.73,29.55,16,1,22,0.00
2013-7-21,79,68,56,62,58,54,94,73,46,30.02,29.72,10,1,14,0.00
2013-7-22,76,64,51,63,56,50,98,78,51,30.05,29.95,11,0,13,0.00
2013-7-23,66,63,56,66,62,54,99,98,95,29.95,29.51,8,0,9,1.50
2013-7-24,82,71,62,73,66,54,99,86,71,29.92,29.52,15,1,17,0.00
2013-7-25,76,65,55,62,56,51,94,76,51,30.12,29.92,17,2,19,0.02
2013-7-26,67,65,62,66,64,61,99,98,94,30.09,29.81,10,0,12,2.45
2013-7-27,82,70,60,69,64,59,99,84,59,30.04,29.78,11,2,16,0.00
2013-7-28,76,65,57,68,62,56,99,92,73,30.07,30.00,11,0,12,0.27
2013-7-29,75,66,62,69,64,61,98,93,79,30.07,29.97,11,1,13,0.02
2013-7-30,82,68,61,69,64,59,99,88,51,30.05,29.95,10,0,11,0.04
2013-7-31,83,68,53,63,58,52,99,73,43,30.06,29.99,15,1,19,0.00
2013-8-1,77,65,53,66,60,52,98,85,61,30.04,29.92,12,1,16,0.00
2013-8-2,67,64,59,66,63,58,99,98,95,29.92,29.75,8,0,8,0.58
2013-8-3,77,64,58,68,62,57,99,93,66,29.80,29.68,16,0,21,0.12
2013-8-4,80,66,52,64,59,52,99,80,51,29.74,29.68,10,0,13,0.00
2013-8-5,72,66,58,58,55,50,86,69,58,29.96,29.79,17,2,19,0.00
2013-8-6,80,64,46,60,53,45,98,70,47,30.13,29.96,8,0,11,0.00
2013-8-7,79,64,49,59,53,48,98,73,43,30.19,30.12,1,0,1,0.00
2013-8-8,66,62,56,63,60,55,99,96,87,30.15,30.03,1,0,2,0.10
2013-8-9,68,65,64,67,65,63,99,99,98,30.04,29.65,20,1,20,2.21
2013-8-10,81,71,60,70,60,50,99,73,40,29.93,29.65,20,2,20,0.00
2013-8-11,78,65,48,58,54,47,98,70,43,29.98,29.90,17,1,17,0.00
2013-8-12,82,67,56,63,58,54,96,74,44,29.96,29.87,12,1,14,0.00
2013-8-13,76,62,52,68,60,51,98,93,77,29.89,29.70,11,0,12,0.00
2013-8-14,74,65,59,67,61,51,99,88,64,29.77,29.56,15,1,19,0.00
2013-8-15,77,65,52,57,53,49,93,69,45,30.05,29.77,13,2,14,0.00
2013-8-16,78,63,49,62,55,48,98,77,48,30.16,30.04,12,0,13,0.00
2013-8-17,79,64,50,63,55,49,98,78,44,30.24,30.16,13,1,14,0.00
2013-8-18,79,64,48,62,56,47,99,79,46,30.24,30.01,1,0,1,0.01
2013-8-19,85,68,51,68,60,50,98,78,50,30.01,29.80,13,0,15,0.00
2013-8-20,84,72,61,70,64,59,97,79,58,30.04,29.89,0,0,0,0.00
2013-8-21,88,72,56,70,63,55,98,76,49,30.09,29.96,0,0,0,0.00
2013-8-22,87,74,58,70,64,56,95,75,49,29.96,29.72,0,0,0,0.00
2013-8-23,76,67,50,66,58,49,98,77,46,30.11,29.71,13,0,14,0.00
2013-8-24,78,62,47,56,49,44,98,70,31,30.27,30.11,13,1,18,0.00
2013-8-25,81,63,46,58,52,45,98,71,34,30.31,30.14,7,0,11,0.00
2013-8-26,73,62,52,66,59,50,98,89,70,30.14,29.83,1,0,2,0.02
2013-8-27,84,70,57,70,64,56,98,83,60,29.89,29.81,0,0,0,0.00
2013-8-28,78,64,58,68,61,57,98,91,70,29.92,29.87,0,0,0,0.00
2013-9-11,67,66,66,66,65,65,97,97,96,29.90,29.86,1,0,1,0.02
2013-9-12,79,68,64,72,66,64,99,94,77,29.97,29.66,13,1,14,0.08
2013-9-13,68,64,60,67,63,59,100,98,96,29.66,29.55,15,1,15,0.40
2013-9-14,71,61,53,62,58,51,99,89,67,29.97,29.63,13,0,15,0.01
2013-9-15,69,57,46,54,51,46,99,82,55,30.08,29.97,11,0,12,0.00
2013-9-16,65,54,42,56,50,36,98,87,70,30.20,29.93,19,2,21,0.00
2013-9-17,65,49,35,50,41,33,96,77,48,30.32,30.19,19,2,19,0.00
2013-9-18,73,56,37,53,46,36,97,74,39,30.25,30.05,11,1,14,0.01
2013-9-19,78,58,40,58,49,40,99,77,40,30.07,29.96,11,1,11,0.00
2013-9-20,78,59,47,60,52,46,98,81,49,30.07,29.99,10,1,11,0.00
2013-9-21,66,56,47,60,55,46,99,95,81,30.05,29.83,13,1,18,0.01
2013-9-22,66,62,54,65,61,52,100,96,93,29.83,29.59,25,3,29,0.39
2013-9-23,57,52,47,52,46,43,93,79,65,29.83,29.65,25,4,25,0.00
2013-9-24,53,50,47,48,45,42,93,84,74,29.82,29.75,13,3,15,0.05
2013-9-25,59,52,48,50,47,45,92,84,69,29.91,29.77,14,3,16,0.00
2013-9-26,61,54,46,52,49,45,95,84,68,30.07,29.90,17,3,18,0.00
2013-9-27,72,58,48,56,52,47,96,81,52,30.22,30.06,13,2,18,0.00
2013-9-28,72,55,41,57,49,40,99,83,51,30.32,30.21,8,0,8,0.01
2013-9-29,70,52,36,56,45,35,99,81,41,30.24,30.10,8,0,12,0.00
2013-9-30,68,53,40,55,49,39,99,89,55,30.12,29.94,8,0,11,0.00
2013-10-1,74,60,50,61,53,49,97,81,51,29.95,29.76,16,1,16,0.00
2013-10-2,79,62,45,62,53,44,99,75,51,29.81,29.66,12,1,14,0.01
2013-10-3,74,60,45,52,47,43,97,67,40,30.01,29.81,18,2,20,0.00
2013-10-4,70,54,41,51,46,39,97,76,43,30.07,29.97,14,1,16,0.00
2013-10-5,65,51,40,48,44,38,96,78,45,30.14,30.04,7,0,11,0.00
2013-10-6,62,50,39,45,39,34,94,70,39,30.28,30.14,13,1,14,0.02
2013-10-7,63,56,45,62,54,42,100,95,89,30.25,29.81,21,3,24,0.07
2013-10-8,63,54,36,63,48,35,99,80,48,30.36,29.79,21,3,23,0.67
2013-10-9,63,46,34,45,39,33,98,80,45,30.46,30.34,11,0,14,0.01
2013-10-10,68,47,31,51,41,30,99,82,40,30.34,30.17,7,0,11,0.00
2013-10-11,77,53,38,57,47,37,99,83,42,30.20,30.08,6,0,6,0.00
2013-10-12,60,50,36,50,45,35,98,84,56,30.42,30.20,10,1,16,0.00
2013-10-13,60,44,34,47,39,33,99,84,55,30.45,30.36,9,0,11,0.01
2013-10-14,64,48,31,50,42,30,99,84,58,30.36,30.22,11,0,11,0.01
2013-10-15,64,55,44,55,50,43,97,86,68,30.26,30.19,9,0,11,0.00
2013-10-16,58,53,44,55,52,43,99,96,86,30.22,29.86,12,0,14,0.20
2013-10-17,60,55,52,57,54,51,99,97,89,29.86,29.74,7,0,9,0.01
2013-10-18,62,54,46,60,52,45,100,92,73,29.77,29.54,21,1,23,0.29
2013-10-19,65,52,42,47,44,40,96,78,46,29.89,29.77,15,0,15,0.00
2013-10-20,63,54,45,57,45,32,99,75,38,29.88,29.64,18,2,21,0.05
2013-10-21,60,48,39,45,37,31,95,68,36,30.02,29.88,18,1,18,0.00
2013-10-22,59,51,39,55,48,38,99,92,80,30.00,29.66,18,2,23,0.01
2013-10-23,56,44,31,42,37,30,98,79,45,29.74,29.54,9,0,9,0.00
2013-10-24,51,44,32,40,32,26,96,66,39,29.73,29.54,17,2,18,0.00
2013-10-25,53,43,33,35,32,28,91,67,45,30.02,29.73,14,2,19,0.00
2013-10-26,51,40,28,41,33,25,97,78,44,30.07,29.86,12,1,15,0.09
2013-10-27,53,44,38,46,40,32,98,86,62,29.92,29.74,12,1,15,0.10
2013-10-28,53,41,31,42,33,28,92,72,53,30.29,29.92,17,2,21,0.00
2013-10-29,47,33,23,30,24,20,95,74,36,30.42,30.28,10,1,12,0.01
2013-10-30,49,32,21,32,24,19,100,77,32,30.33,30.12,10,0,11,0.00
2013-10-31,57,40,22,56,37,20,98,89,66,30.24,29.78,16,2,20,0.37
2013-11-1,62,59,57,61,57,53,100,94,82,29.78,29.32,25,4,29,0.64
2013-11-2,64,53,40,54,47,38,98,81,51,29.73,29.47,15,1,16,0.00
2013-11-3,48,37,29,43,25,19,87,64,41,30.34,29.71,23,4,23,0.04
2013-11-4,42,31,24,22,20,18,88,66,43,30.69,30.34,19,3,21,0.00
2013-11-5,46,33,21,35,27,19,95,81,57,30.71,30.49,11,0,12,0.00
2013-11-6,53,42,28,49,39,26,97,89,74,30.50,29.96,14,1,16,0.01
2013-11-7,59,52,34,57,49,32,97,92,86,29.97,29.58,15,2,18,0.28
2013-11-8,46,38,32,34,29,25,97,70,49,29.86,29.67,21,3,21,0.00
2013-11-9,43,35,25,26,24,22,91,66,47,30.09,29.86,21,4,23,0.00
2013-11-10,45,36,25,44,34,23,98,94,87,30.07,29.65,12,0,14,0.06
2013-11-11,43,36,31,36,33,30,98,87,68,29.94,29.66,19,2,21,0.00
2013-11-12,44,33,27,39,24,16,98,69,58,30.00,29.78,19,4,19,0.02
2013-11-13,36,28,22,17,15,13,78,60,39,30.12,29.99,20,4,24,0.00
2013-11-14,46,34,20,31,25,16,92,72,48,30.06,29.92,11,1,15,0.00
2013-11-15,55,34,24,40,28,23,96,81,38,30.16,30.04,9,0,13,0.00
2013-11-16,50,35,26,44,32,24,97,89,74,30.33,30.16,4,0,6,0.00
2013-11-17,49,42,30,47,41,30,99,95,86,30.36,30.01,9,1,12,0.04
2013-11-18,58,51,37,57,50,37,99,97,91,30.01,29.45,26,3,29,0.40
2013-11-19,40,36,32,37,26,20,99,69,48,30.06,29.52,21,4,28,0.00
2013-11-20,38,31,26,20,10,3,62,43,24,30.56,30.06,30,6,30,0.00
2013-11-21,52,33,21,32,18,9,88,58,18,30.57,30.31,13,1,13,0.00
2013-11-22,46,33,24,31,26,17,95,78,33,30.31,29.74,9,0,12,0.00
2013-11-23,40,34,28,36,24,16,98,69,44,29.74,29.57,30,5,35,0.03
2013-11-24,28,23,20,18,9,6,67,56,49,29.82,29.54,30,9,38,0.00
2013-11-25,29,20,15,13,4,0,81,51,29,30.28,29.82,24,5,26,0.00
2013-11-26,35,29,19,32,24,13,96,82,61,30.30,30.18,7,0,10,0.02
2013-11-27,57,49,33,56,48,32,99,97,92,30.20,29.09,37,6,39,0.07
2013-11-28,44,31,20,42,22,9,94,71,46,30.31,29.17,21,5,23,0.00
2013-11-29,26,19,14,11,10,7,83,66,47,30.68,30.30,17,3,18,0.00
2013-11-30,30,18,10,19,12,8,91,76,44,30.77,30.43,7,1,12,0.00
2013-12-1,34,30,23,34,28,20,97,95,87,30.42,30.25,1,0,4,0.02
2013-12-4,43,36,27,32,30,25,92,77,65,30.17,29.89,22,4,23,0.00
2013-12-5,49,36,23,49,34,21,98,94,86,30.28,29.90,15,1,15,0.00
2013-12-6,50,44,36,50,42,29,99,93,72,30.04,29.81,14,1,14,0.00
2013-12-7,37,32,24,31,19,10,95,61,42,30.32,30.01,20,4,22,0.00
2013-12-8,26,22,14,13,9,6,85,60,42,30.58,30.31,21,3,28,0.00
2013-12-9,32,24,18,32,19,8,97,80,58,30.55,29.78,12,1,13,0.00
2013-12-10,34,29,20,33,26,13,97,89,72,29.82,29.68,13,1,16,0.02
2013-12-11,30,20,7,18,13,4,93,76,55,30.06,29.81,15,1,18,0.02
2013-12-12,19,10,1,12,1,-5,87,66,43,30.19,29.97,18,3,22,0.00
2013-12-13,24,13,3,12,2,-7,89,64,38,30.32,29.83,20,4,22,0.00
2013-12-14,13,4,-6,100,3,-100,79,62,39,30.60,30.32,12,2,14,0.00
2013-12-15,28,16,8,27,14,-4,96,89,57,30.47,29.29,24,5,27,0.00
2013-12-16,23,14,3,16,8,-5,92,75,52,30.13,29.58,20,4,27,0.01
2013-12-17,16,6,-11,100,29,-6,91,73,56,30.30,30.06,14,2,18,0.00
2013-12-18,23,17,4,20,14,0,93,89,83,30.07,29.74,16,3,20,0.00
2013-12-19,32,23,1,28,20,-2,97,88,81,30.06,29.89,8,0,9,0.00
2013-12-20,34,29,23,33,28,21,97,94,88,30.15,29.90,9,1,11,0.00
2013-12-21,33,28,22,32,27,21,97,96,94,29.96,29.81,11,1,12,0.00
2013-12-22,32,30,28,31,29,27,96,96,94,30.08,29.84,9,0,13,0.00
2013-12-23,33,30,28,32,29,27,98,97,96,30.11,29.99,0,0,0,0.00
2013-12-24,33,29,24,32,27,22,98,93,89,30.10,29.99,0,0,0,0.00
2013-12-26,28,25,22,27,24,20,97,95,93,30.18,30.00,0,0,0,0.00
2013-12-27,30,21,9,26,19,7,100,91,83,30.15,30.01,0,0,0,0.00
2013-12-28,36,24,6,34,22,4,98,93,90,30.14,29.88,5,0,7,0.01
2013-12-29,33,31,26,32,30,25,98,97,95,30.04,29.50,12,0,13,0.00
2013-12-30,28,19,3,25,17,-1,96,90,81,30.12,29.42,0,0,0,0.00
2013-12-31,10,1,-7,100,47,-3,89,83,70,30.17,30.02,5,0,5,0.00
2014-1-1,18,3,-12,100,44,-4,90,81,70,30.42,30.08,14,1,15,0.00
2014-1-2,-1,-6,-9,100,99,38,83,78,71,30.49,30.01,19,5,23,0.00